• In Hungary
  • List of Countries
  • For 7 days
  • Water Temperature
  • Satellite Maps
  • Weather Map
  • News
  • Weather Widgets
  • user-avatar
    Login

    Hourly Weather Horonhoy

    Today, 21 February, Wednesday

    Time Temperature Precipitation Wind Pressure Humidity
    00:00 -19°C° 0 mm 2 mps 714 mmHg 85%
    01:00 -19°C° 0 mm 2 mps 714 mmHg 84%
    02:00 -19°C° 0 mm 2 mps 713 mmHg 83%
    03:00 -19°C° 0 mm 2 mps 713 mmHg 83%
    04:00 -19°C° 0 mm 2 mps 713 mmHg 83%
    05:00 -19°C° 0 mm 2 mps 713 mmHg 83%
    06:00 -19°C° 0 mm 2 mps 713 mmHg 83%
    07:00 -19°C° 0 mm 2 mps 713 mmHg 83%
    08:00 -18°C° 0 mm 2 mps 713 mmHg 80%
    09:00 -16°C° 0 mm 2 mps 713 mmHg 78%
    10:00 -15°C° 0 mm 2 mps 712 mmHg 75%
    11:00 -13°C° 0 mm 2 mps 712 mmHg 72%
    12:00 -13°C° 0 mm 3 mps 711 mmHg 70%
    13:00 -10°C° 0 mm 3 mps 711 mmHg 67%
    14:00 -9°C° 0 mm 2 mps 711 mmHg 70%
    15:00 -9°C° 0 mm 2 mps 710 mmHg 73%
    16:00 -9°C° 0 mm 2 mps 710 mmHg 75%
    17:00 -12°C° 0 mm 2 mps 710 mmHg 78%
    18:00 -13°C° 0 mm 2 mps 710 mmHg 80%
    19:00 -15°C° 0 mm 2 mps 710 mmHg 83%
    20:00 -15°C° 0 mm 2 mps 710 mmHg 84%
    21:00 -13°C° 0 mm 1 mps 710 mmHg 86%
    22:00 -13°C° 0 mm 1 mps 710 mmHg 88%
    23:00 -14°C° 0 mm 1 mps 709 mmHg 89%

    Tomorrow, 22 February, Thursday

    Time Temperature Precipitation Wind Pressure Humidity
    00:00 -14°C° 0 mm 1 mps 709 mmHg 90%
    01:00 -15°C° 0 mm 1 mps 709 mmHg 90%
    02:00 -16°C° 0 mm 1 mps 709 mmHg 90%
    03:00 -16°C° 0 mm 1 mps 708 mmHg 90%
    04:00 -17°C° 0 mm 1 mps 708 mmHg 90%
    05:00 -17°C° 0 mm 1 mps 708 mmHg 90%
    06:00 -17°C° 0 mm 1 mps 708 mmHg 89%
    07:00 -17°C° 0 mm 1 mps 708 mmHg 89%
    08:00 -15°C° 0 mm 1 mps 708 mmHg 85%
    09:00 -14°C° 0 mm 1 mps 709 mmHg 81%
    10:00 -12°C° 0 mm 1 mps 709 mmHg 78%
    11:00 -11°C° 0 mm 1 mps 709 mmHg 74%
    12:00 -10°C° 0 mm 1 mps 709 mmHg 70%
    13:00 -9°C° 0 mm 1 mps 708 mmHg 67%
    14:00 -10°C° 0 mm 2 mps 709 mmHg 69%
    15:00 -10°C° 0 mm 2 mps 709 mmHg 71%
    16:00 -10°C° 0 mm 2 mps 709 mmHg 73%
    17:00 -11°C° 0 mm 1 mps 709 mmHg 76%
    18:00 -12°C° 0 mm 1 mps 710 mmHg 78%
    19:00 -14°C° 0 mm 1 mps 710 mmHg 81%
    20:00 -15°C° 0 mm 1 mps 710 mmHg 83%
    21:00 -16°C° 0 mm 1 mps 711 mmHg 84%
    22:00 -17°C° 0 mm 0 mps 711 mmHg 85%
    23:00 -18°C° 0 mm 0 mps 711 mmHg 87%

    Day after tomorrow, 23 February, Friday

    Time Temperature Precipitation Wind Pressure Humidity
    00:00 -18°C° 0 mm 0 mps 712 mmHg 88%
    01:00 -19°C° 0 mm 0 mps 712 mmHg 89%
    02:00 -19°C° 0 mm 0 mps 712 mmHg 89%
    03:00 -19°C° 0 mm 0 mps 712 mmHg 90%
    04:00 -20°C° 0 mm 1 mps 712 mmHg 91%
    05:00 -20°C° 0 mm 1 mps 712 mmHg 91%
    06:00 -20°C° 0 mm 1 mps 713 mmHg 92%
    07:00 -20°C° 0 mm 1 mps 713 mmHg 92%
    08:00 -18°C° 0 mm 1 mps 713 mmHg 89%
    09:00 -16°C° 0 mm 1 mps 713 mmHg 85%
    10:00 -17°C° 0 mm 2 mps 713 mmHg 81%
    11:00 -15°C° 0 mm 2 mps 713 mmHg 79%
    12:00 -14°C° 0 mm 2 mps 712 mmHg 76%
    13:00 -12°C° 0 mm 2 mps 712 mmHg 73%
    14:00 -12°C° 0 mm 2 mps 712 mmHg 75%
    15:00 -12°C° 0 mm 2 mps 712 mmHg 77%
    16:00 -12°C° 0 mm 2 mps 711 mmHg 79%
    17:00 -12°C° 0 mm 1 mps 712 mmHg 82%
    18:00 -13°C° 0 mm 1 mps 712 mmHg 85%
    19:00 -15°C° 0 mm 1 mps 713 mmHg 87%
    20:00 -15°C° 0 mm 1 mps 713 mmHg 87%
    21:00 -16°C° 0 mm 1 mps 713 mmHg 87%
    22:00 -16°C° 0 mm 1 mps 713 mmHg 88%
    23:00 -16°C° 0 mm 1 mps 713 mmHg 88%

    24 February, Saturday

    Time Temperature Precipitation Wind Pressure Humidity
    00:00 -16°C° 0 mm 1 mps 713 mmHg 88%
    01:00 -16°C° 0 mm 1 mps 713 mmHg 88%
    02:00 -16°C° 0 mm 1 mps 713 mmHg 89%
    03:00 -17°C° 0 mm 1 mps 712 mmHg 89%
    04:00 -17°C° 0 mm 1 mps 712 mmHg 90%
    05:00 -17°C° 0 mm 1 mps 712 mmHg 90%
    06:00 -17°C° 0 mm 1 mps 712 mmHg 90%
    07:00 -17°C° 0 mm 1 mps 712 mmHg 90%
    08:00 -15°C° 0 mm 1 mps 712 mmHg 86%
    09:00 -13°C° 0 mm 1 mps 712 mmHg 82%
    10:00 -12°C° 0 mm 1 mps 712 mmHg 78%
    11:00 -10°C° 0 mm 1 mps 712 mmHg 77%
    12:00 -10°C° 0 mm 2 mps 711 mmHg 75%
    13:00 -8°C° 0 mm 2 mps 711 mmHg 73%
    14:00 -8°C° 0 mm 2 mps 711 mmHg 76%
    15:00 -7°C° 0 mm 1 mps 710 mmHg 79%
    16:00 -7°C° 0 mm 1 mps 710 mmHg 81%
    17:00 -9°C° 0 mm 1 mps 710 mmHg 84%
    18:00 -11°C° 0 mm 1 mps 710 mmHg 86%
    19:00 -13°C° 0 mm 1 mps 710 mmHg 89%
    20:00 -13°C° 0 mm 1 mps 710 mmHg 89%
    21:00 -13°C° 0 mm 0 mps 710 mmHg 89%
    22:00 -13°C° 0 mm 0 mps 710 mmHg 89%
    23:00 -14°C° 0 mm 0 mps 710 mmHg 90%

    25 February, Sunday

    Time Temperature Precipitation Wind Pressure Humidity
    00:00 -14°C° 0 mm 0 mps 709 mmHg 90%
    01:00 -14°C° 0 mm 0 mps 709 mmHg 90%
    02:00 -14°C° 0 mm 0 mps 709 mmHg 91%
    03:00 -15°C° 0 mm 0 mps 709 mmHg 91%
    04:00 -15°C° 0 mm 0 mps 708 mmHg 91%
    05:00 -15°C° 0 mm 0 mps 708 mmHg 91%
    06:00 -15°C° 0 mm 0 mps 708 mmHg 91%
    07:00 -15°C° 0 mm 0 mps 708 mmHg 92%
    08:00 -14°C° 0 mm 0 mps 708 mmHg 88%
    09:00 -12°C° 0 mm 0 mps 708 mmHg 84%
    10:00 -10°C° 0 mm 0 mps 708 mmHg 80%
    11:00 -9°C° 0 mm 0 mps 707 mmHg 79%
    12:00 -8°C° 0 mm 1 mps 707 mmHg 77%
    13:00 -7°C° 0 mm 1 mps 706 mmHg 76%
    14:00 -7°C° 0.1 mm 1 mps 706 mmHg 80%
    15:00 -7°C° 0.1 mm 1 mps 706 mmHg 84%
    16:00 -7°C° 0.1 mm 1 mps 706 mmHg 88%
    17:00 -8°C° 0.3 mm 1 mps 707 mmHg 91%
    18:00 -8°C° 0.3 mm 1 mps 707 mmHg 93%
    19:00 -10°C° 0.3 mm 2 mps 708 mmHg 95%
    20:00 -10°C° 0.1 mm 2 mps 709 mmHg 94%
    21:00 -10°C° 0.1 mm 2 mps 709 mmHg 93%
    22:00 -10°C° 0.1 mm 2 mps 710 mmHg 93%
    23:00 -12°C° 0 mm 2 mps 710 mmHg 91%

    26 February, Monday

    Time Temperature Precipitation Wind Pressure Humidity
    00:00 -12°C° 0 mm 2 mps 710 mmHg 89%
    01:00 -13°C° 0 mm 2 mps 711 mmHg 87%
    02:00 -14°C° 0 mm 2 mps 711 mmHg 86%
    03:00 -14°C° 0 mm 2 mps 711 mmHg 85%
    04:00 -15°C° 0 mm 2 mps 712 mmHg 84%
    05:00 -14°C° 0 mm 1 mps 712 mmHg 84%
    06:00 -15°C° 0 mm 1 mps 712 mmHg 84%
    07:00 -15°C° 0 mm 1 mps 713 mmHg 83%
    08:00 -14°C° 0 mm 1 mps 713 mmHg 79%
    09:00 -12°C° 0 mm 0 mps 713 mmHg 75%
    10:00 -11°C° 0 mm 0 mps 713 mmHg 70%
    11:00 -10°C° 0 mm 1 mps 713 mmHg 69%
    12:00 -9°C° 0 mm 1 mps 712 mmHg 68%
    13:00 -8°C° 0 mm 1 mps 712 mmHg 67%
    14:00 -9°C° 0 mm 1 mps 712 mmHg 70%
    15:00 -10°C° 0 mm 2 mps 712 mmHg 74%
    16:00 -10°C° 0 mm 2 mps 712 mmHg 77%
    17:00 -12°C° 0 mm 2 mps 712 mmHg 81%
    18:00 -14°C° 0 mm 2 mps 712 mmHg 86%
    19:00 -15°C° 0 mm 2 mps 713 mmHg 90%
    20:00 -15°C° 0.1 mm 2 mps 713 mmHg 90%
    21:00 -17°C° 0.1 mm 3 mps 713 mmHg 89%
    22:00 -17°C° 0.1 mm 3 mps 714 mmHg 89%
    23:00 -17°C° 0 mm 3 mps 714 mmHg 89%
    Show more